Regional Weather Roundup
Issued by NWS

Home | Current Version | Previous Version | Graphics & Text | Print | Product List | Glossary On
Versions: 1 2 3 4 5 6 7 8 9 10 11 12 13 14 15 16 17 18 19 20 21 22 23 24 25 26 27 28 29 30 31 32 33 34 35 36 37 38 39 40 41 42 43 44 45 46 47 48 49 50
000
ASUS43 KDTX 261810
RWRMI
MICHIGAN HOURLY REGIONAL WEATHER ROUNDUP
NATIONAL WEATHER SERVICE DETROIT/PONTIAC MI
100 PM EST FRI DEC 26 2014

NOTE: "FAIR" INDICATES FEW OR NO CLOUDS BELOW 12,000 FEET WITH NO
SIGNIFICANT WEATHER AND/OR OBSTRUCTION TO VISIBILITY.

MIZ047>049-052>055-059>063-066>070-074>076-081>083-261900-
SOUTHEAST LOWER MICHIGAN

CITY           SKY/WX    TMP DP  RH WIND       PRES   REMARKS
ADRIAN           N/A     43  36  76 SW13      30.09F
6HR MIN TEMP:  29; 6HR MAX TEMP:  43;

ALMA             N/A     43  36  76 S6        30.03F
ANN ARBOR        N/A     44  35  70 SW14      30.07F
BAD AXE        CLOUDY    41  36  82 SW7       30.05F
6HR MIN TEMP:  32; 6HR MAX TEMP:  41;

DETROIT CITY     N/A     47  34  60 SW10      30.08F
6HR MIN TEMP:  35; 6HR MAX TEMP:  47;

DETROIT        PTSUNNY   44  35  70 S13       30.09F
6HR MIN TEMP:  31; 6HR MAX TEMP:  45;

FLINT            N/A     47  35  63 SW10      30.05F
6HR MIN TEMP:  36; 6HR MAX TEMP:  47;

GROSSE ILE       N/A     43  37  81 S13       30.08F
HILLSDALE        N/A     45  38  75 SW9       30.06F
6HR MIN TEMP:  32; 6HR MAX TEMP:  45;

HOWELL           N/A     45  35  70 S9        30.04F
6HR MIN TEMP:  32; 6HR MAX TEMP:  45;


CITY           SKY/WX    TMP DP  RH WIND       PRES   REMARKS
JACKSON          N/A     45  35  68 SW14      30.05F
6HR MIN TEMP:  33; 6HR MAX TEMP:  46;

LAMBERTVILLE     N/A     46  36  66 SW9       30.10F
LANSING          N/A     46  35  65 SW10      30.04F
6HR MIN TEMP:  34; 6HR MAX TEMP:  46;

LAPEER         NOT AVBL
MASON            N/A     44  34  67 SW10G16   30.04F
6HR MIN TEMP:  33; 6HR MAX TEMP:  44;

MONROE           N/A     46  37  71 SW13      30.08F
MT. CLEMENS    PTSUNNY   46  34  62 SW9       30.06F
6HR MIN TEMP:  31; 6HR MAX TEMP:  46;

PONTIAC          N/A     44  34  67 SW9       30.04F
6HR MIN TEMP:  32; 6HR MAX TEMP:  44;

PORT HOPE        N/A     40  33  76 SW9       30.04S
6HR MIN TEMP:  34; 6HR MAX TEMP:  42;

PORT HURON       N/A     43  36  75 S8        30.08F
TRI CITIES     CLOUDY    44  36  73 W10       30.04F
6HR MIN TEMP:  35; 6HR MAX TEMP:  44;

YPSILANTI        N/A     46  35  65 SW13      30.08F
6HR MIN TEMP:  34; 6HR MAX TEMP:  46;

$$
MIZ043>046-050>051-056>058-064>065-071>073-077>080-261900-
SOUTHWEST LOWER MICHIGAN

CITY           SKY/WX    TMP DP  RH WIND       PRES   REMARKS
BATTLE CREEK     N/A     45  35  68 SW13      30.05F
6HR MIN TEMP:  34; 6HR MAX TEMP:  46;

BENTON HARBOR    N/A     48  36  63 SW15G25   30.03F
6HR MIN TEMP:  34; 6HR MAX TEMP:  48;

BIG RAPIDS     CLOUDY    39  37  92 SW8       29.99F
6HR MIN TEMP:  31; 6HR MAX TEMP:  39;

COLDWATER        N/A     46  36  68 SW10      30.05F
6HR MIN TEMP:  33; 6HR MAX TEMP:  46;

HOLLAND          N/A     46  35  65 SW17G24   30.03F
6HR MIN TEMP:  36; 6HR MAX TEMP:  46;

GRAND RAPIDS     N/A     46  36  68 SW12      30.02F
6HR MIN TEMP:  34; 6HR MAX TEMP:  46;

KALAMAZOO        N/A     47  35  63 SW13      30.04F
6HR MIN TEMP:  33; 6HR MAX TEMP:  47;

MARSHALL         N/A     44  35  71 SW8       30.04F
MUSKEGON       PTSUNNY   44  37  76 SW17G24   30.01F
6HR MIN TEMP:  39; 6HR MAX TEMP:  44;

$$
MIZ016>042-261900-
NORTHERN LOWER MICHIGAN

CITY           SKY/WX    TMP DP  RH WIND       PRES   REMARKS
ALPENA         CLOUDY    39  33  79 SW7       30.01F
6HR MIN TEMP:  34; 6HR MAX TEMP:  39;

BEAVER ISLAND  CLOUDY    39  37  92 S7        29.97F
6HR MIN TEMP:  33; 6HR MAX TEMP:  39;

BELLAIRE       CLOUDY    40  35  80 S3        30.00S
6HR MIN TEMP:  37; 6HR MAX TEMP:  40;

CADILLAC       CLOUDY    36  34  92 CALM      29.98S
CHARLEVOIX     CLOUDY    39  36  87 S5        30.01F
6HR MIN TEMP:  38; 6HR MAX TEMP:  39;

FRANKFORT      CLOUDY    40  37  88 S9        29.97F
GAYLORD        CLOUDY    34  33  96 S8        29.97F FOG
6HR MIN TEMP:  33; 6HR MAX TEMP:  35;

GRAYLING       CLOUDY    36  33  91 S3        30.00S
6HR MIN TEMP:  33; 6HR MAX TEMP:  36;

HARBOR SPRINGS CLOUDY    38  34  85 CALM      29.99F
HOUGHTON LAKE  CLOUDY    36  33  89 SW6       29.99F
6HR MIN TEMP:  33; 6HR MAX TEMP:  36;

MANISTEE       CLOUDY    43  36  75 SW9       29.98F
OSCODA         CLOUDY    39  34  81 SW8       30.02F
PELLSTON       CLOUDY    39  34  82 S6        29.99F
6HR MIN TEMP:  36; 6HR MAX TEMP:  39;

TRAVERSE CITY  CLOUDY    42  35  76 SW6       29.98F
6HR MIN TEMP:  39; 6HR MAX TEMP:  42;

$$
MIZ007>008-015-261900-
EASTERN UPPER MICHIGAN

CITY           SKY/WX    TMP DP  RH WIND       PRES   REMARKS
KINROSS        CLOUDY    36  36 100 CALM      29.97F
6HR MIN TEMP:  34; 6HR MAX TEMP:  37;

MACKINAC ISLAN CLOUDY    39  37  94 S7        29.97F
6HR MIN TEMP:  35; 6HR MAX TEMP:  39;

NEWBERRY       CLOUDY    33  32  97 W5        29.97S
6HR MIN TEMP:  30; 6HR MAX TEMP:  33;

S. S. MARIE    CLOUDY    35  33  92 CALM      29.97S FOG
6HR MIN TEMP:  33; 6HR MAX TEMP:  35;

$$
MIZ004>006-011>014-085-261900-
CENTRAL UPPER MICHIGAN

CITY           SKY/WX    TMP DP  RH WIND       PRES   REMARKS
MANISTIQUE     CLOUDY    33  33 100 N5        29.97F FOG
6HR MIN TEMP:  31; 6HR MAX TEMP:  34;

ESCANABA       CLOUDY    34  30  86 CALM      29.96F
6HR MIN TEMP:  32; 6HR MAX TEMP:  34;

MENOMINEE      CLOUDY    37  34  87 CALM      29.95F
6HR MIN TEMP:  27; 6HR MAX TEMP:  37;

SAWYER-GWINN   CLOUDY    30  30 100 N3        29.95F FOG
$$
MIZ001>003-009>011-084-261900-
WESTERN UPPER MICHIGAN

CITY           SKY/WX    TMP DP  RH WIND       PRES   REMARKS
IRON MOUNTAIN  CLOUDY    33  30  88 N3        29.94F
6HR MIN TEMP:  31; 6HR MAX TEMP:  33;

HOUGHTON       CLOUDY    33  27  78 N8        29.97S
6HR MIN TEMP:  30; 6HR MAX TEMP:  33; 6HR PCP: TRACE;

COPPER HARBOR    N/A     35  27  72 NE9       29.99S
6HR MIN TEMP:  34; 6HR MAX TEMP:  36;

IRONWOOD       CLOUDY    30  28  93 N7        29.97S
6HR MIN TEMP:  28; 6HR MAX TEMP:  30;

$$

ABBREVIATIONS USED IN REMARKS
   TC - TEMPERATURE IN CELSIUS
  WCI - WIND CHILL INDEX
   HX - HEAT INDEX
  VSB - VISIBILITY




USA.gov is the U.S. government's official web portal to all federal, state and local government web resources and services.